Weather Roundup
Issued by NWS Chicago, IL

Home | Current Version | Previous Version | Text Only | Print | Product List | Glossary Off
Versions: 1 2 3 4 5 6 7 8 9 10 11 12 13 14 15 16 17 18 19 20 21 22 23 24 25 26 27 28 29 30 31 32 33 34 35 36 37 38 39 40 41 42 43 44 45 46 47 48 49 50

000
NZUS59 KLOT 112008
HRRLOT

CHICAGO AREA WEATHER ROUNDUP
NATIONAL WEATHER SERVICE CHICAGO/ROMEOVILLE IL
200 PM CST THU FEB 11 2016

NOTE: "FAIR" INDICATES FEW OR NO CLOUDS BELOW 12,000 FEET WITH NO
SIGNIFICANT WEATHER AND/OR OBSTRUCTIONS TO VISIBILITY.

* THESE STATIONS ARE NOT UNDER NWS QUALITY CONTROL. THEY ALSO MAY NOT
  REPORT WEATHER SUCH AS PRECIPITATION OR FOG.

ILZ005-006-012>014-019>023-112100-
NORTHEAST ILLINOIS

CITY           SKY/WX    TMP DP  RH WIND       PRES   REMARKS
OHARE          MOSUNNY   20   3  48 W7        30.28F WCI  11
MIDWAY         MOSUNNY   21   0  39 W5        30.29F WCI  15
AURORA         SUNNY     21   7  54 W8        30.30F WCI  11
LANSING*       SUNNY     22   0  39 W6        30.29F WCI  14
JOLIET*        SUNNY     24   4  43 W5        30.31S WCI  18
WAUKEGAN       SUNNY     19   1  45 VRB6      30.27F WCI  11
DUPAGE AIRPORT SUNNY     20   3  48 W7        30.28F WCI  11
WHEELING       SUNNY     20   3  48 NW12      30.30F WCI   8
KANKAKEE*      SUNNY     23   4  44 W6        30.31S WCI  15
MORRIS*        SUNNY     21   5  48 NW3       30.29F
LEWIS AIRPORT* SUNNY     21   1  41 NW6       30.30S WCI  13
$$

WIZ051-052-058>065-066-070>072-112100-
SOUTHEAST WISCONSIN

CITY           SKY/WX    TMP DP  RH WIND       PRES   REMARKS
MILWAUKEE      MOSUNNY   18  -1  43 W8        30.28F WCI   8
KENOSHA*       SUNNY     18   2  49 W6        30.28F WCI  10
RACINE*        SUNNY     18   0  45 NW9       30.29F WCI   7
BURLINGTON     SUNNY     17   0  46 NW9       30.27F WCI   6
WAUKESHA       SUNNY     14   0  52 NW9       30.27F WCI   2
WEST BEND      SUNNY     18   0  45 CALM      30.25F
$$

INZ001>003-010>013-019-020-112100-
NORTHWEST INDIANA

CITY           SKY/WX    TMP DP  RH WIND       PRES   REMARKS
GARY*          MOSUNNY   23   3  42 N9        30.30F WCI  13
MICHIGAN CITY* NOT AVBL
RENSSELAER*    NOT AVBL
VALPARAISO     CLOUDY    21  10  62 N8        30.28F WCI  11
$$

LMZ740>746-112100-
SOUTHERN LAKE MICHIGAN

STATION/POSITION TIME  SKY/WX   TEMP WIND        PRES    VSBY
                                AIR  DIR/SP/G
                 (UTC)          (F)  (DEG/KT/KT) (MB)    (MI)
HARRISON CRIB    1900            17   20/  5/  8   N/A
BURNHAM HARBOR   2000            20   60/  4/  8   N/A
CALUMET HARBOR   1900            18  350/  8/ 10 1025.5F
BURNS HARBOR     2000            18  310/  8/ 18 1026.4F
MICHIGAN CITY    1900            19  260/ 17/ 19   N/A
$$

ABBREVIATIONS USED IN REMARKS
   TC - TEMPERATURE IN CELSIUS
  WCI - WIND CHILL INDEX
   HX - HEAT INDEX
  VSB - VISIBILITY
$$



USA.gov is the U.S. government's official web portal to all federal, state and local government web resources and services.